102P/Shoemaker 1 (2006)

Japanese version
Home page
Total 6,336 html files since Dec. 4, 1995
Updated on April 20, 2007

---------------------------------------------------------------------

* Profile

* Orbital Elements

Epoch 2006 May 25.0 TT = JDT 2453880.5
T 2006 June 6.78287 TT                                  MPC
q   1.9737575            (2000.0)            P               Q
n   0.13630822     Peri.   18.53268     +0.98840654     -0.00699718
a   3.7392804      Node   339.94674     -0.10852470     +0.66605234
e   0.4721558      Incl.   26.25210     +0.10618333     +0.74587219
P   7.23
From 18 observations 1991-2006, mean residual 0".82.  Nongravitational
   parameters A1 = +2.32 +/- 0.53, A2 = -0.6508 +/- 0.0190.

* Finding Charts

* Magnitudes Graph

        m1 = 14.5 + 5 log d + 10.0 log r

        * Gray curve is:  m1 = 2.5 + 5 log d + 35 log r

---------------------------------------------------------------------

The orbital elements are published on M.P.E.C. 2006-O54.
The charts are made with StellaNavigator Ver.2.0 for Windows (AstroArts / ASCII).
The magnitudes graphs are made with Comet for Windows.

---------------------------------------------------------------------

Copyright(C) 1995-2008 Seiichi Yoshida (comet@aerith.net). All rights reserved.